• In India
  • List of Countries
  • For 7 days
  • Water Temperature
  • Satellite Maps
  • Weather Map
  • Weather Widgets
  • user-avatar
    Login

    Hourly Weather Zaliznychne

    Today, 17 November, Saturday

    Time Temperature Precipitation Wind Pressure Humidity
    00:00 -4°C° 0 mm 5 mps 758 mmHg 31%
    01:00 -4°C° 0 mm 5 mps 758 mmHg 32%
    02:00 -4°C° 0 mm 4 mps 758 mmHg 32%
    03:00 -4°C° 0 mm 4 mps 758 mmHg 32%
    04:00 -5°C° 0 mm 5 mps 758 mmHg 32%
    05:00 -5°C° 0 mm 5 mps 758 mmHg 32%
    06:00 -5°C° 0 mm 5 mps 757 mmHg 32%
    07:00 -5°C° 0 mm 5 mps 757 mmHg 32%
    08:00 -5°C° 0 mm 5 mps 757 mmHg 32%
    09:00 -4°C° 0 mm 5 mps 757 mmHg 30%
    10:00 -2°C° 0 mm 4 mps 757 mmHg 29%
    11:00 -1°C° 0 mm 4 mps 757 mmHg 27%
    12:00 0°C° 0 mm 4 mps 757 mmHg 28%
    13:00 0°C° 0 mm 4 mps 757 mmHg 29%
    14:00 +1°C° 0 mm 3 mps 756 mmHg 29%
    15:00 0°C° 0 mm 3 mps 756 mmHg 32%
    16:00 -1°C° 0 mm 3 mps 756 mmHg 35%
    17:00 -2°C° 0 mm 3 mps 755 mmHg 38%
    18:00 -3°C° 0 mm 2 mps 755 mmHg 39%
    19:00 -3°C° 0 mm 2 mps 755 mmHg 39%
    20:00 -3°C° 0 mm 2 mps 754 mmHg 40%
    21:00 -1°C° 0 mm 1 mps 754 mmHg 40%
    22:00 -1°C° 0 mm 1 mps 754 mmHg 40%
    23:00 -1°C° 0 mm 1 mps 753 mmHg 40%

    Tomorrow, 18 November, Sunday

    Time Temperature Precipitation Wind Pressure Humidity
    00:00 -1°C° 0 mm 1 mps 753 mmHg 40%
    01:00 -1°C° 0 mm 1 mps 752 mmHg 40%
    02:00 -2°C° 0 mm 1 mps 752 mmHg 40%
    03:00 -2°C° 0 mm 1 mps 751 mmHg 40%
    04:00 -2°C° 0 mm 1 mps 751 mmHg 40%
    05:00 -2°C° 0 mm 1 mps 750 mmHg 40%
    06:00 -2°C° 0 mm 1 mps 750 mmHg 39%
    07:00 -2°C° 0 mm 1 mps 750 mmHg 39%
    08:00 -2°C° 0 mm 1 mps 749 mmHg 38%
    09:00 0°C° 0 mm 1 mps 749 mmHg 36%
    10:00 +1°C° 0 mm 1 mps 749 mmHg 33%
    11:00 +2°C° 0 mm 1 mps 749 mmHg 30%
    12:00 +2°C° 0 mm 1 mps 748 mmHg 30%
    13:00 +2°C° 0 mm 1 mps 748 mmHg 31%
    14:00 +3°C° 0 mm 1 mps 748 mmHg 31%
    15:00 +1°C° 0 mm 1 mps 748 mmHg 34%
    16:00 0°C° 0 mm 1 mps 748 mmHg 38%
    17:00 -1°C° 0 mm 1 mps 748 mmHg 41%
    18:00 -2°C° 0 mm 0 mps 747 mmHg 41%
    19:00 -2°C° 0 mm 0 mps 747 mmHg 42%
    20:00 -2°C° 0 mm 0 mps 747 mmHg 42%
    21:00 -2°C° 0 mm 0 mps 748 mmHg 42%
    22:00 -1°C° 0 mm 1 mps 748 mmHg 42%
    23:00 -1°C° 0 mm 1 mps 748 mmHg 43%

    Day after tomorrow, 19 November, Monday

    Time Temperature Precipitation Wind Pressure Humidity
    00:00 -2°C° 0 mm 1 mps 748 mmHg 43%
    01:00 -2°C° 0 mm 1 mps 748 mmHg 44%
    02:00 -2°C° 0 mm 1 mps 748 mmHg 45%
    03:00 -2°C° 0 mm 1 mps 748 mmHg 45%
    04:00 -2°C° 0 mm 1 mps 748 mmHg 46%
    05:00 -4°C° 0 mm 2 mps 748 mmHg 46%
    06:00 -4°C° 0 mm 2 mps 748 mmHg 46%
    07:00 -4°C° 0 mm 2 mps 749 mmHg 46%
    08:00 -4°C° 0 mm 2 mps 749 mmHg 46%
    09:00 -4°C° 0 mm 3 mps 749 mmHg 44%
    10:00 -1°C° 0 mm 3 mps 749 mmHg 41%
    11:00 0°C° 0 mm 3 mps 749 mmHg 39%
    12:00 0°C° 0 mm 3 mps 749 mmHg 41%
    13:00 0°C° 0 mm 3 mps 749 mmHg 43%
    14:00 0°C° 0 mm 3 mps 749 mmHg 45%
    15:00 0°C° 0 mm 3 mps 749 mmHg 48%
    16:00 -1°C° 0 mm 3 mps 749 mmHg 51%
    17:00 -2°C° 0 mm 4 mps 749 mmHg 55%
    18:00 -2°C° 0.1 mm 4 mps 749 mmHg 57%
    19:00 -2°C° 0.1 mm 4 mps 748 mmHg 60%
    20:00 -3°C° 0.1 mm 4 mps 748 mmHg 62%
    21:00 -3°C° 0.2 mm 4 mps 748 mmHg 68%
    22:00 -3°C° 0.2 mm 4 mps 748 mmHg 75%
    23:00 -3°C° 0.2 mm 4 mps 748 mmHg 81%

    20 November, Tuesday

    Time Temperature Precipitation Wind Pressure Humidity
    00:00 -3°C° 0.3 mm 4 mps 748 mmHg 83%
    01:00 -4°C° 0.3 mm 5 mps 748 mmHg 84%
    02:00 -4°C° 0.3 mm 5 mps 748 mmHg 86%
    03:00 -4°C° 0.2 mm 5 mps 747 mmHg 87%
    04:00 -4°C° 0.2 mm 5 mps 747 mmHg 89%
    05:00 -4°C° 0.2 mm 5 mps 746 mmHg 90%
    06:00 -4°C° 0.3 mm 5 mps 746 mmHg 90%
    07:00 -4°C° 0.3 mm 5 mps 746 mmHg 91%
    08:00 -2°C° 0.3 mm 5 mps 746 mmHg 91%
    09:00 -2°C° 0.2 mm 4 mps 746 mmHg 91%
    10:00 -2°C° 0.2 mm 4 mps 746 mmHg 91%
    11:00 -1°C° 0.2 mm 4 mps 746 mmHg 90%
    12:00 -1°C° 0 mm 4 mps 746 mmHg 90%
    13:00 0°C° 0 mm 3 mps 746 mmHg 91%
    14:00 0°C° 0 mm 3 mps 745 mmHg 91%
    15:00 -1°C° 0 mm 3 mps 746 mmHg 92%
    16:00 -1°C° 0 mm 3 mps 746 mmHg 93%
    17:00 -1°C° 0 mm 2 mps 746 mmHg 94%
    18:00 -1°C° 0 mm 2 mps 746 mmHg 94%
    19:00 -2°C° 0 mm 2 mps 746 mmHg 94%
    20:00 -2°C° 0 mm 2 mps 746 mmHg 95%
    21:00 -2°C° 0 mm 2 mps 746 mmHg 95%
    22:00 -2°C° 0 mm 2 mps 746 mmHg 95%
    23:00 -1°C° 0 mm 1 mps 746 mmHg 95%

    21 November, Wednesday

    Time Temperature Precipitation Wind Pressure Humidity
    00:00 -3°C° 0 mm 2 mps 746 mmHg 95%
    01:00 -2°C° 0 mm 2 mps 746 mmHg 94%
    02:00 -2°C° 0 mm 2 mps 746 mmHg 93%
    03:00 -2°C° 0 mm 2 mps 746 mmHg 93%
    04:00 -2°C° 0 mm 2 mps 746 mmHg 93%
    05:00 -2°C° 0 mm 2 mps 745 mmHg 94%
    06:00 -2°C° 0 mm 2 mps 746 mmHg 93%
    07:00 -2°C° 0 mm 3 mps 746 mmHg 92%
    08:00 -2°C° 0 mm 3 mps 746 mmHg 91%
    09:00 -2°C° 0 mm 3 mps 746 mmHg 89%
    10:00 -2°C° 0 mm 3 mps 746 mmHg 86%
    11:00 -2°C° 0 mm 4 mps 746 mmHg 83%
    12:00 -2°C° 0 mm 4 mps 746 mmHg 82%
    13:00 -2°C° 0 mm 4 mps 746 mmHg 81%
    14:00 -2°C° 0 mm 4 mps 746 mmHg 80%
    15:00 -2°C° 0 mm 4 mps 746 mmHg 81%
    16:00 -3°C° 0 mm 4 mps 747 mmHg 81%
    17:00 -2°C° 0 mm 3 mps 747 mmHg 82%
    18:00 -3°C° 0 mm 4 mps 747 mmHg 81%
    19:00 -3°C° 0 mm 4 mps 747 mmHg 80%
    20:00 -3°C° 0 mm 4 mps 747 mmHg 80%
    21:00 -4°C° 0 mm 3 mps 747 mmHg 80%
    22:00 -4°C° 0 mm 3 mps 748 mmHg 80%
    23:00 -4°C° 0 mm 3 mps 748 mmHg 80%

    22 November, Thursday

    Time Temperature Precipitation Wind Pressure Humidity
    00:00 -4°C° 0 mm 3 mps 748 mmHg 82%
    01:00 -4°C° 0 mm 3 mps 748 mmHg 83%
    02:00 -5°C° 0 mm 3 mps 748 mmHg 84%
    03:00 -5°C° 0 mm 3 mps 748 mmHg 85%
    04:00 -5°C° 0 mm 3 mps 748 mmHg 86%
    05:00 -5°C° 0 mm 3 mps 749 mmHg 88%
    06:00 -5°C° 0 mm 3 mps 749 mmHg 87%
    07:00 -5°C° 0 mm 3 mps 749 mmHg 85%
    08:00 -5°C° 0 mm 3 mps 749 mmHg 84%
    09:00 -5°C° 0 mm 3 mps 749 mmHg 79%
    10:00 -4°C° 0 mm 3 mps 750 mmHg 74%
    11:00 -2°C° 0 mm 3 mps 750 mmHg 69%
    12:00 -2°C° 0 mm 3 mps 750 mmHg 69%
    13:00 -2°C° 0 mm 3 mps 749 mmHg 69%
    14:00 -2°C° 0 mm 3 mps 749 mmHg 70%
    15:00 -2°C° 0 mm 3 mps 750 mmHg 73%
    16:00 -4°C° 0 mm 3 mps 750 mmHg 77%
    17:00 -5°C° 0 mm 3 mps 750 mmHg 80%
    18:00 -5°C° 0 mm 3 mps 750 mmHg 82%
    19:00 -5°C° 0 mm 3 mps 750 mmHg 83%
    20:00 -5°C° 0 mm 3 mps 750 mmHg 85%
    21:00 -6°C° 0 mm 3 mps 750 mmHg 86%
    22:00 -6°C° 0 mm 3 mps 751 mmHg 87%
    23:00 -5°C° 0 mm 2 mps 751 mmHg 88%
    Show more